Flag for Canada Weather past 2 weeks in Kingston, Ontario, Canada

Now
73 °F

Partly sunny.


Feels Like: 72 °F
Forecast: 68 / 84 °F
Wind: 8 mph from South

Location: Kingston

Current Time: Jul 29, 2015 at 10:15:03 AM

Latest Report: Jul 29, 2015 at 9:00 AM


Visibility: 15 mi

Pressure: 29.97 "Hg

Humidity: 89%

Dew point: 70 °F

Location of KingstonLocation

Historic Weather in Kingston — Graph

°F

Kingston temperature yesterday

Maximum temperature yesterday: 82 °F (at 5:00 PM)
Minimum temperature yesterday: 63 °F (at 6:00 AM)
Average temperature yesterday: 75 °F

Past Weeks' High & Low Weather Summary

 TemperatureHumidityPressure
High82 °F (Jul 19, 1:00 PM)100% (Jul 14, 9:00 PM)30.15 "Hg (Jul 14, 9:00 PM)
Low48 °F (Jul 16, 6:00 AM)47% (Jul 22, 5:00 PM)29.52 "Hg (Jul 14, 6:00 PM)
Average70 °F79%29.86 "Hg
* Reported Jul 14 9:00 AM — Jul 29 9:00 AM, Kingston, Weather by CustomWeather, © 2015

Note: Actual official high and low records may vary slightly from our data, if they occured in-between our weather recording intervals... More about our weather records

Advertising

Kingston weather history for previous 24 hours

 ConditionsComfort  
Time TempWeatherWind HumidityBarometerVisibility
9:00 AM
Wed, Jul 29
73 °FPartly sunny.8 mph89%29.97 "Hg15 mi
8:00 AM72 °FPartly sunny.8 mph94%29.97 "Hg15 mi
7:00 AM70 °FPartly sunny.6 mph94%29.96 "Hg15 mi
6:00 AM66 °FPartly cloudy.3 mph94%29.96 "Hg15 mi
11:00 PM
Tue, Jul 28
72 °FPassing clouds.7 mph88%29.98 "Hg15 mi
10:00 PM73 °FPassing clouds.5 mph74%29.96 "Hg15 mi
9:00 PM75 °FPassing clouds.7 mph74%29.95 "Hg15 mi
8:00 PM75 °FPartly sunny.6 mph83%29.95 "Hg15 mi
7:00 PM81 °FPartly sunny.6 mph70%29.95 "Hg15 mi
5:00 PM82 °FPartly sunny.10 mph70%29.96 "Hg15 mi
4:00 PM81 °FScattered clouds.12 mph74%29.97 "Hg15 mi
3:00 PM81 °FScattered clouds.10 mph74%29.98 "Hg15 mi
2:00 PM79 °FPartly sunny.13 mph74%29.98 "Hg15 mi
1:00 PM77 °FPartly sunny.12 mph79%29.99 "Hg15 mi
12:00 PM77 °FPartly sunny.7 mph74%30.01 "Hg15 mi
11:00 AM77 °FPartly sunny.5 mph79%30.00 "Hg15 mi
10:00 AM75 °FPartly sunny.2 mph78%30.00 "Hg15 mi
Weather by CustomWeather, © 2015

See weather overviewHow to use our weather pages